Погода в Петряксах

Россия / Нижегородская область     55°24′42″N   46°02′04″E
темп.,
°C
ветер,
м/с
пор.,
м/с
влажн.,
%
обл.,
%
осадки,
мм/ч
давл.,
гПа
погр.,
м
7 марта, вс
вс700:00−15з239550 0.0 101221
03:00−14зюз239667 0.1 101232
06:00−16юз349669 0.0 101147
09:00−12юз599365 0.0 1010285
12:00−8ююз6108798 0.0 1007520
15:00−7ю8138599 0.0 1003816
18:00−6ююз81493100 1.0 999898
21:00−5ююз71394100 1.9 996851
8 марта, пн
пн800:00−5ююз61395100 0.6 992591
03:00−3з91390100 2.3 992722
06:00−11з6128339 0.0 994246
09:00−9зюз6129151 0.0 997474
12:00−6зюз588595 0.0 998665
15:00−5зюз468797 0.1 997695
18:00−9ссз2290100 0.0 99921
21:00−10сз3693100 0.0 1002114
9 марта, вт
вт900:00−14зсз459318 0.0 100570
03:00−16зсз349733 0.0 100743
06:00−18зсз239885 0.0 100920
09:00−16сз239690 0.0 1011142
12:00−13ссз239099 0.0 1011343
15:00−12ссз3490100 0.1 1012478
18:00−13ссз3696100 0.1 1013167
21:00−14с499599 0.3 1015308
10 марта, ср
ср1000:00−19ссз369894 0.1 1016132
03:00−21ссз489896 0.1 1017193
06:00−24ссз4997100 0.0 1019240
09:00−25ссз479597 0.1 1021294
12:00−22ссз589279 0.0 1022464
15:00−19ссз588789 0.0 1023609
18:00−22сз349487 0.0 102452
21:00−23сз349757 0.0 102667
11 марта, чт
чт1100:00−25сз349730 0.0 102654
03:00−25зсз349824 0.0 102754
06:00−25зсз459837 0.0 102883
09:00−21зсз489546 0.0 1029268
12:00−16зсз589162 0.0 1028350
15:00−13зсз589052 0.0 1028347
18:00−17зсз47940 0.0 1029133
21:00−18зсз34930 0.0 103155